Location: Newark
(40.7360°N, 74.1730°W)
Time: 02:06:59
(UTC-05:00)

ISS - All Passes

Search period start: 06 February 2016 00:00
Search period end: 16 February 2016 00:00
Orbit: 399 x 408 km, 51.6° (Epoch: 06 February)

Date Brightness Start Highest point End Pass type
(mag) Time Alt. Az. Time Alt. Az. Time Alt. Az.
06 Feb - 00:42:11 10° W 00:44:49 23° SW 00:47:28 10° S night (unlit)
06 Feb - 15:46:34 10° SSE 15:48:04 13° SE 15:49:33 10° ESE daylight
06 Feb - 17:20:53 10° WSW 17:24:07 69° NW 17:27:22 10° NE daylight
06 Feb - 18:58:51 10° WNW 19:01:03 17° NNW 19:03:16 10° NNE visible
06 Feb - 20:37:03 10° NNW 20:38:32 12° N 20:40:00 10° NNE visible
06 Feb - 22:13:03 10° NW 22:15:51 25° NNE 22:18:37 10° E night (unlit)
06 Feb - 23:49:18 10° WNW 23:52:25 45° SW 23:55:32 10° SSE night (unlit)
07 Feb - 16:28:23 10° SW 16:31:36 60° SE 16:34:48 10° ENE daylight
07 Feb - 18:05:38 10° WNW 18:08:16 22° NNW 18:10:54 10° NNE visible
07 Feb - 19:44:14 10° NNW 19:45:38 12° N 19:47:03 10° NNE visible
07 Feb - 21:20:43 10° NNW 21:23:05 18° NNE 21:25:28 10° ENE night (unlit)
07 Feb - 22:56:40 10° NW 22:59:55 88° NE 23:03:10 10° SE night (unlit)
08 Feb - 15:36:14 10° SSW 15:39:07 30° SE 15:42:01 10° ENE daylight
08 Feb - 17:12:33 10° W 17:15:32 33° NNW 17:18:31 10° NE daylight
08 Feb - 18:51:05 10° NW 18:52:45 13° N 18:54:24 10° NNE visible
08 Feb - 20:28:19 10° NNW 20:30:15 15° NNE 20:32:11 10° NE visible
08 Feb - 22:04:09 10° NW 22:07:19 47° NNE 22:10:28 10° ESE night (unlit)
08 Feb - 23:41:11 10° W 23:43:32 19° SW 23:45:54 10° S night (unlit)
09 Feb - 14:44:41 10° S 14:46:43 16° SE 14:48:45 10° E daylight
09 Feb - 16:19:39 10° WSW 16:22:52 56° NNW 16:26:04 10° NE daylight
09 Feb - 17:57:48 10° NW 17:59:52 16° NNW 18:01:56 10° NNE visible
09 Feb - 19:35:48 10° NNW 19:37:21 13° N 19:38:54 10° NE visible
09 Feb - 21:11:44 10° NW 21:14:37 29° NNE 21:17:30 10° E night (unlit)
09 Feb - 22:48:05 10° WNW 22:51:06 36° SW 22:54:07 10° SSE night (unlit)
10 Feb - 15:27:01 10° SW 15:30:15 76° SE 15:33:30 10° ENE daylight
10 Feb - 17:04:30 10° WNW 17:07:00 20° NNW 17:09:31 10° NNE daylight
10 Feb - 18:43:01 10° NNW 18:44:25 12° N 18:45:49 10° NNE visible
10 Feb - 20:19:18 10° NNW 20:21:49 20° NNE 20:24:20 10° ENE visible
10 Feb - 21:55:20 10° WNW 21:58:34 75° SW 22:01:48 10° SE night (unlit)
11 Feb - 14:34:41 10° SSW 14:37:42 37° SE 14:40:45 10° ENE daylight
11 Feb - 16:11:18 10° W 16:14:12 28° NNW 16:17:05 10° NE daylight
11 Feb - 17:49:54 10° NW 17:51:28 13° N 17:53:01 10° NNE visible
11 Feb - 19:26:52 10° NNW 19:28:57 16° NNE 19:31:01 10° NE visible
11 Feb - 21:02:44 10° NW 21:05:57 57° NNE 21:09:08 10° ESE night (unlit)
11 Feb - 22:40:05 10° W 22:42:04 15° SW 22:44:04 10° S night (unlit)
12 Feb - 13:42:49 10° S 13:45:13 19° SE 13:47:37 10° E daylight
12 Feb - 15:18:17 10° WSW 15:21:27 46° NNW 15:24:36 10° NE daylight
12 Feb - 16:56:35 10° NW 16:58:31 15° NNW 17:00:27 10° NNE daylight
12 Feb - 18:34:21 10° NNW 18:36:01 13° N 18:37:40 10° NE visible
12 Feb - 20:10:13 10° NW 20:13:13 33° NNE 20:16:11 10° E visible
12 Feb - 21:46:45 10° WNW 21:49:37 29° SW 21:52:28 10° SSE night (unlit)
13 Feb - 14:25:30 10° SW 14:28:45 87° NW 14:32:01 10° NE daylight
13 Feb - 16:03:13 10° WNW 16:05:35 18° NNW 16:07:58 10° NNE daylight
13 Feb - 17:41:37 10° NNW 17:43:01 12° N 17:44:26 10° NNE daylight
13 Feb - 19:17:45 10° NNW 19:20:23 22° NNE 19:23:01 10° ENE visible
13 Feb - 20:53:51 10° WNW 20:57:03 59° SW 21:00:14 10° SE visible
14 Feb - 13:33:00 10° SSW 13:36:08 46° SE 13:39:16 10° ENE daylight
14 Feb - 15:09:55 10° W 15:12:42 25° NNW 15:15:29 10° NE daylight
14 Feb - 16:48:32 10° NNW 16:50:01 12° N 16:51:29 10° NNE daylight
14 Feb - 18:25:16 10° NNW 18:27:28 17° NNE 18:29:41 10° ENE visible
14 Feb - 20:01:09 10° NW 20:04:24 69° NE 20:07:37 10° ESE visible
14 Feb - 21:38:59 10° WSW 21:40:26 12° SW 21:41:54 10° SSW night (unlit)
15 Feb - 12:40:55 10° S 12:43:34 23° SE 12:46:14 10° E daylight
15 Feb - 14:16:47 10° WSW 14:19:52 39° NNW 14:22:58 10° NE daylight
15 Feb - 15:55:11 10° NW 15:57:00 14° N 15:58:48 10° NNE daylight
15 Feb - 17:32:43 10° NNW 17:34:30 14° N 17:36:17 10° NE daylight
15 Feb - 19:08:34 10° NW 19:11:38 38° NNE 19:14:41 10° E visible
15 Feb - 20:45:16 10° WNW 20:47:57 24° SW 20:50:37 10° S visible
